Dewpoint
38 39 38 38 40 42 42 43 43 43 44 44 45 47 47 47 47 45 40 44 44 38 37 37 38 36 36 36 31 32 31 31 30 28 27 26 25 21 19 16 19 20 21 19 22 20 18 11 14 16 13 10 10 11
38 38 38 38 37 41 42 42 42 43 44 44 44 45 46 46 47 46 41 42 45 40 34 35 33 33 33 37 36 33 31 30 29 28 27 26 26 21 20 16 17 16 18 19 20 19 6 7 9 11 10 9 9 10
38 38 38 37 38 39 41 42 42 43 43 44 43 44 45 46 45 45 42 40 39 34 32 33 32 34 34 31 33 32 33 31 32 28 31 27 26 24 17 19 16 15 16 16 18 9 3 5 6 7 10 9 9 10
38 38 38 38 39 40 41 42 42 42 41 41 42 43 45 45 46 46 39 40 40 36 33 29 30 30 32 32 35 36 31 32 31 32 28 26 25 24 17 16 14 14 13 14 15 8 4 4 4 5 7 9 11 12
38 38 38 39 41 41 42 42 42 42 42 42 43 44 45 45 46 43 39 40 41 38 29 25 27 24 25 28 36 36 35 32 30 27 26 24 25 18 16 14 12 11 11 11 11 13 12 7 6 7 9 9 11 11
39 39 40 41 41 42 42 43 44 43 44 44 43 44 45 45 43 39 33 37 38 36 27 22 28 28 25 25 29 33 33 32 31 29 27 28 25 19 20 15 17 15 10 9 7 9 8 9 10 10 10 12 13 14
40 40 42 42 42 43 44 44 44 44 44 45 43 45 45 45 40 37 34 35 39 38 28 21 21 27 31 30 29 28 27 28 29 27 26 25 18 22 22 14 10 10 11 10 11 11 10 11 11 13 13 13 15 15
41 41 41 45 47 46 44 44 44 44 44 44 44 44 43 40 36 32 37 40 38 33 31 22 19 21 25 25 22 27 26 27 27 25 22 17 17 19 14 17 14 10 14 15 14 14 14 12 11 11 11 12 11 12
41 41 41 44 44 44 44 45 45 44 43 42 42 39 35 33 30 31 35 36 36 31 25 23 15 15 22 25 26 26 27 19 24 17 19 17 16 11 14 14 13 14 15 14 14 13 11 11 12 13 13 12 11 12
42 41 41 42 42 42 42 43 42 41 41 38 35 31 26 30 37 34 31 25 25 28 27 22 22 18 22 23 23 21 22 18 9 14 17 15 14 14 14 15 16 17 17 15 13 12 12 12 13 14 14 15 15 15
41 41 40 40 40 41 40 39 38 35 34 33 27 25 31 32 28 25 18 17 18 15 20 19 18 18 19 18 18 20 15 14 -1 9 11 9 12 16 11 13 14 17 17 16 15 16 17 15 14 15 15 16 16 17
40 39 38 37 35 34 32 32 32 30 29 29 25 25 22 21 16 10 5 13 14 13 18 15 17 20 20 22 17 18 12 9 -1 13 3 4 11 18 11 8 13 14 14 14 15 11 14 16 16 15 16 16 17 17
39 37 35 34 35 33 31 30 28 27 26 22 16 9 11 8 -0 -9 -5 1 9 16 17 15 16 17 19 18 13 13 1 2 12 -2 3 7 15 15 7 8 13 13 11 12 14 16 16 15 17 15 13 16 16 16
38 36 35 34 32 31 30 30 29 25 18 16 5 -2 -1 -2 3 9 10 11 18 19 19 17 15 15 14 9 9 -0 9 7 -8 -11 -5 1 10 12 10 13 11 9 11 12 13 15 15 15 14 15 16 16 16 16
36 34 33 32 31 31 30 30 27 23 18 5 5 1 -2 9 4 4 10 13 18 18 14 10 10 12 4 -2 -1 2 -7 -13 -7 -5 4 11 14 11 13 13 12 10 7 7 9 11 11 12 12 13 15 15 15 16
34 33 31 32 32 31 29 26 24 21 11 4 7 0 15 7 14 17 16 16 15 14 16 12 -2 -4 -2 -1 -5 -9 -10 -10 -1 5 13 12 13 13 13 15 15 11 11 10 8 11 13 12 12 13 13 14 14 14
34 30 30 30 29 29 29 23 18 8 4 0 13 18 14 13 13 11 6 8 13 11 3 -0 -8 -6 -2 -6 -8 1 -3 4 9 11 13 12 10 10 11 14 15 15 14 11 6 8 11 11 8 9 10 11 13 15
30 31 31 29 27 25 20 16 8 3 8 9 11 17 16 14 11 16 17 19 10 2 2 0 1 -8 -9 -9 -3 5 5 6 10 10 12 13 10 11 14 14 14 14 13 11 7 8 7 8 9 12 13 14 16 18
29 29 31 29 26 19 8 10 8 -0 10 15 14 17 16 17 20 20 18 19 16 8 6 -3 -5 -8 2 5 4 4 4 5 9 11 10 8 10 11 12 11 12 11 11 10 9 11 12 11 13 14 15 17 18 20
30 30 28 27 24 11 2 4 10 2 -2 10 9 5 11 12 10 9 5 7 16 5 -0 -5 4 10 8 9 11 9 11 10 8 9 9 8 4 3 9 10 10 11 11 11 12 16 14 13 14 18 20 20 21 20
25 26 25 19 10 7 3 -6 0 7 9 -2 -1 5 1 2 -0 -4 -7 1 -1 -9 1 7 8 9 11 7 7 10 11 11 11 10 9 9 10 10 11 12 11 13 12 12 12 11 14 13 16 18 19 20 22 20
20 24 14 15 4 -2 -0 4 2 4 0 -5 -5 -5 -11 -10 -12 -11 -8 -7 -11 1 0 2 3 5 10 7 7 4 8 9 13 13 16 15 10 10 10 10 12 11 11 10 11 11 13 16 17 18 20 19 20 19
20 15 6 3 2 -1 -2 2 -3 -5 -4 -7 -10 -9 -10 -13 -11 -7 -9 -10 -2 4 5 6 5 0 6 9 8 7 9 12 12 12 13 12 12 13 13 11 10 11 10 11 14 15 15 18 20 20 18 19 19 19
15 3 -1 -5 -5 -4 -7 -6 -5 -7 -11 -8 -13 -11 -11 -13 -10 -10 -6 0 8 12 7 2 3 9 9 9 8 9 12 14 13 12 13 13 11 11 12 12 12 13 14 15 16 16 16 18 20 17 17 17 18 17
3 -0 -4 -7 -11 -5 -10 -11 -12 -7 -10 -14 -13 -11 -10 -12 -11 -14 -4 2 3 2 3 8 9 9 8 8 9 10 13 14 12 11 11 14 13 12 12 13 14 15 18 17 16 17 17 15 15 15 17 18 16 15
-5 -5 -5 -11 -6 -4 -7 -8 -11 -10 -11 -11 -11 -11 -15 -14 -13 -9 1 4 5 7 9 8 8 7 7 10 10 10 11 14 14 12 12 15 15 13 11 12 12 13 18 18 18 17 14 15 15 16 17 19 20 16
-7 -9 -1 8 5 2 -0 -0 -0 -5 -14 -12 -11 -11 -13 -12 -6 4 10 9 9 10 11 11 11 9 9 10 12 13 15 16 16 16 16 17 17 17 17 14 13 16 20 19 17 16 15 15 15 16 15 16 16 16
-5 -3 -6 -6 -6 -6 -10 -10 -11 -12 -8 0 -0 -5 -3 -1 2 7 9 12 11 11 11 12 13 13 12 13 14 14 15 17 17 16 16 17 17 18 18 19 21 23 20 19 17 16 16 15 14 14 14 13 13 16
-5 0 -1 -9 -12 -9 -11 -10 -7 0 2 0 -3 2 3 9 9 9 11 11 11 9 8 8 9 12 12 14 14 16 16 16 12 9 9 9 11 13 18 19 20 20 20 20 20 17 16 16 15 14 14 14 14 14
-7 -1 -7 -15 -11 -9 -9 -7 -8 -6 -0 2 2 4 7 9 11 13 11 9 7 6 8 9 11 10 9 10 10 11 16 17 15 14 10 10 12 16 17 18 18 18 19 19 18 19 21 18 18 15 14 13 13 13
-2 -7 -9 -8 -10 -10 -11 -9 -10 -2 -8 -12 -8 -4 2 4 8 12 10 9 9 8 7 8 7 9 9 8 9 10 11 19 18 17 18 16 17 17 18 18 18 18 18 18 17 16 16 15 15 14 14 14 14 13
-8 -16 -12 -9 -10 -12 -15 -16 -16 -14 -13 -14 -13 -8 -2 2 4 8 10 9 6 5 9 8 6 6 10 12 14 16 21 18 20 17 17 17 17 17 18 18 18 18 17 16 16 15 14 14 13 13 12 12 12 12
-19 -19 -19 -15 -14 -14 -15 -13 -13 -14 -14 -16 -14 -11 -7 -2 -1 6 11 11 8 6 6 7 9 10 12 14 16 16 19 19 24 26 25 23 22 20 18 18 17 16 16 15 15 14 13 12 11 11 10 10 9 9
Lifted_Index
3 3 4 4 4 5 5 5 5 5 4 4 4 3 3 3 3 4 4 4 3 2 3 3 3 3 3 3 3 3 3 3 3 2 1 1 2 2 3 3 4 4 4 4 3 3 3 3 3 4 4 5 5 5
2 2 3 3 4 4 4 4 4 4 4 4 4 3 3 3 3 3 4 4 2 2 2 3 3 3 3 3 3 2 2 2 2 2 2 2 2 3 3 4 4 4 4 4 4 3 4 4 4 4 5 5 5 6
1 2 2 3 3 3 3 3 3 3 3 3 3 3 3 2 2 3 3 3 2 1 2 3 3 3 3 3 2 2 2 2 2 2 2 2 3 3 4 4 4 4 4 4 4 4 4 4 4 5 5 6 7 7
2 2 2 3 2 2 2 2 2 3 3 3 3 3 2 2 2 2 3 2 2 1 1 2 3 4 4 3 3 3 2 2 2 2 2 3 3 3 4 4 4 4 4 4 4 4 4 5 5 6 7 8 8 9
2 2 2 2 2 2 2 2 2 2 2 2 2 2 2 2 2 2 2 2 2 2 2 2 4 4 4 4 4 4 3 3 3 3 3 3 4 4 4 4 4 4 4 4 4 5 5 6 7 8 9 9 10 10
2 2 3 3 2 2 2 2 2 1 1 2 2 2 1 1 1 2 2 2 2 2 2 3 4 5 5 5 5 5 5 4 4 4 4 4 4 4 4 4 5 5 5 5 6 6 7 8 9 10 10 10 11 11
3 3 3 2 2 2 1 1 1 1 1 1 1 1 1 1 1 2 3 3 3 2 2 2 3 5 6 6 5 5 6 5 5 5 5 5 5 5 5 5 6 7 7 7 7 8 9 9 10 11 11 11 12 12
3 4 3 2 1 1 0 0 0 1 1 2 2 2 2 2 2 3 5 5 5 3 2 2 2 5 6 6 6 6 6 6 6 6 6 6 6 6 6 6 7 8 8 9 9 9 10 11 11 11 12 12 12 12
4 4 4 3 2 2 2 1 2 2 3 3 3 2 3 3 4 6 7 7 6 4 3 3 3 4 6 6 6 7 7 7 7 7 7 7 7 7 7 8 8 9 9 10 10 11 11 11 12 12 12 12 12 12
4 4 4 4 5 4 4 4 4 4 5 5 4 4 5 6 7 7 7 6 5 5 4 4 4 5 6 7 7 7 7 7 7 8 8 7 7 7 8 9 10 10 11 11 11 11 12 12 12 12 12 13 13 13
4 4 5 5 6 6 6 6 6 6 6 5 5 6 8 9 8 6 5 5 4 5 5 6 6 6 7 7 7 8 8 7 7 8 8 7 7 8 10 10 11 11 11 12 12 12 12 12 12 12 13 13 13 13
5 5 6 6 7 7 8 8 8 8 7 7 7 8 9 8 7 5 4 4 5 5 7 7 7 8 9 9 8 8 8 8 8 9 8 7 8 9 10 11 11 11 12 12 12 12 12 12 12 13 13 13 13 13
5 6 6 7 8 9 9 10 10 10 9 9 8 8 7 7 5 4 5 5 6 8 9 9 9 9 10 10 9 9 9 9 9 9 8 8 9 10 11 11 11 11 12 12 12 12 12 12 12 13 13 13 13 13
6 6 7 8 9 10 10 10 11 10 10 9 8 7 6 7 7 7 7 8 9 10 10 10 10 10 10 10 9 9 9 9 9 8 8 9 10 10 11 11 11 11 11 12 12 12 12 12 12 13 13 13 12 12
7 7 8 9 10 10 11 11 11 11 10 10 9 8 8 8 9 9 10 10 10 11 10 10 10 10 9 9 9 9 8 8 8 8 9 10 10 10 11 11 11 11 11 11 11 11 12 12 12 12 12 12 11 11
8 8 9 10 10 11 11 11 11 11 11 10 10 9 10 10 10 10 11 11 11 10 10 10 10 9 9 9 9 8 7 7 8 9 10 10 10 11 11 11 11 11 11 11 11 11 11 12 12 11 11 11 11 11
8 9 10 11 11 11 12 12 11 11 11 11 10 11 11 11 10 10 10 10 10 10 10 9 9 9 8 8 8 8 8 8 8 9 9 10 10 11 11 11 11 11 11 11 11 11 11 11 11 10 10 10 10 11
9 10 11 12 12 12 12 12 12 11 11 11 11 11 11 10 10 10 10 10 10 9 9 9 8 8 8 7 7 8 8 8 8 8 9 9 10 10 11 11 11 10 10 10 10 11 11 11 10 10 10 10 11 11
11 12 12 12 12 12 12 12 12 11 11 11 11 10 10 10 9 9 9 9 9 8 8 8 7 7 7 7 7 7 8 8 8 8 8 8 9 10 10 10 10 10 10 10 10 10 10 10 11 11 11 11 11 11
12 12 12 12 12 12 12 12 11 11 11 10 10 9 9 8 8 8 8 8 7 7 7 7 7 7 7 7 7 7 8 8 7 7 7 7 8 9 10 11 11 11 10 10 10 11 11 11 11 12 12 12 11 11
12 12 12 12 11 11 11 11 10 10 9 9 8 7 7 7 7 6 6 7 6 6 6 7 7 7 7 8 8 8 8 8 8 8 8 8 9 10 10 11 11 11 11 11 11 11 11 11 12 12 12 12 11 11
12 12 11 11 11 10 10 9 8 8 7 7 6 6 6 6 6 6 6 6 6 7 7 7 7 8 8 8 8 8 8 8 9 9 9 10 10 10 11 11 12 11 11 11 12 12 12 12 12 12 12 12 11 11
11 11 10 10 9 8 8 7 7 6 6 6 6 5 5 5 5 6 6 6 6 7 8 8 8 8 8 8 9 9 9 9 10 10 11 11 11 12 12 12 13 12 12 12 13 13 12 13 13 12 12 11 10 10
9 9 8 8 7 7 6 6 6 6 6 5 5 4 4 5 5 5 5 6 6 7 8 8 8 8 9 9 9 10 10 11 11 11 12 12 12 12 13 13 14 14 14 13 13 13 13 13 12 12 11 11 10 10
7 7 7 6 6 5 5 5 5 5 5 4 4 4 4 4 4 5 5 6 7 7 8 8 9 9 9 9 10 10 11 12 12 12 13 13 13 13 13 14 14 14 14 14 13 13 13 13 12 12 12 11 11 11
6 6 5 5 5 5 5 5 5 4 4 3 3 3 4 4 4 5 6 7 7 8 9 9 9 9 10 10 11 11 13 13 13 13 14 15 15 14 14 13 13 14 14 14 13 13 13 13 13 13 13 13 13 13
5 5 5 5 5 5 5 5 4 4 4 3 3 4 4 4 4 5 7 8 9 10 10 11 11 11 11 11 12 13 14 14 15 15 15 16 16 15 15 14 13 14 14 15 14 14 14 14 14 14 14 14 15 15
4 4 4 5 5 5 4 4 4 4 4 4 4 4 4 5 6 7 8 10 10 11 11 11 12 12 12 13 13 14 14 15 15 15 15 15 15 15 15 15 14 14 15 15 15 15 15 15 15 15 15 15 16 17
4 4 4 4 4 4 4 4 4 5 5 5 5 5 5 7 8 9 10 11 11 11 11 11 12 12 12 13 13 14 14 15 14 14 13 13 14 14 15 15 14 14 15 15 15 16 16 16 15 15 15 16 16 17
4 5 4 4 4 4 5 5 5 6 6 6 6 6 7 8 10 11 11 11 11 11 11 11 12 12 12 12 12 13 14 14 14 14 13 13 13 14 15 15 14 15 15 15 15 15 15 15 15 15 15 16 16 16
5 5 5 4 4 5 5 6 6 6 6 6 7 7 7 8 9 11 12 11 11 11 11 11 11 12 12 12 12 13 13 14 15 14 14 14 14 15 15 15 14 14 14 14 14 14 15 15 15 15 15 15 15 15
5 5 5 5 5 5 5 5 5 5 6 6 6 7 7 7 8 10 12 12 11 11 11 11 11 12 12 13 13 13 13 14 14 14 14 14 14 14 14 14 14 14 14 13 14 14 14 14 14 14 15 15 15 15
5 5 5 5 5 5 5 5 5 5 5 6 6 7 7 7 7 10 12 12 12 11 11 11 12 12 13 13 13 13 14 14 14 14 14 14 14 14 14 14 13 13 13 13 13 14 14 14 14 15 15 15 15 16